sat.trackr.live / text

‹ back to catalog

STARLINK-35501

NORAD 66436 · 2025-259Q

PAYLOAD ACTIVE UNKNOWN

§ Identity

Operator
Country
US
Launch date
2025-11-11
Launch site
AFETR
Launch vehicle
Mass (kg)
RCS (m²)

Purposes: comms

External: N2YO · Heavens-Above · Gunter

§ Orbital elements

Epoch: 2026-09-20T08:05:33.269568Z

Period
94.27 min
Inclination
43.0014°
Eccentricity
0.0001000
Mean motion
15.27581767 rev/d
Perigee alt
482.4 km
Apogee alt
483.7 km
Semi-major
6,861.2 km
B*
2.5909e-4
RAAN
254.7729°
Arg perigee
264.7498°
Mean anomaly
95.3239°
Rev number
4,926

§ Raw data

STARLINK-355011 66436U 25259Q   26263.33719062  .00006875  00000+0  25909-3 0  99912 66436  43.0014 254.7729 0001000 264.7498  95.3239 15.27581767 49267

JSON: /api/v1/satellites/66436 · /tle

For live sub-satellite position, see the globe view (requires WebGL).

§ Visibility from observer

Set your observer location to see the next 7 days of passes ≥ 10°. The values pass through the URL so the page stays shareable.

No JS? Fill the form by hand. The geolocation button needs JavaScript.